Weather in Gilchin

Russia / Amur Oblast     49°54′18″N   127°51′59″E
temp.,
°C
wind,
m/s
gust,
m/s
humid.,
%
clouds,
%
prec.,
mm/h
press.,
hPa
HPBL,
m
8 may, sat
sat800:00+8n61251100 0.0 996404
03:00+6n7134687 0.0 996434
06:00+5n7135299 0.0 997586
09:00+8n81044100 0.0 998926
12:00+11n7836100 0.0 9971414
15:00+13nne7836100 0.0 9962071
18:00+12n6839100 0.0 9971866
21:00+8ese4772100 0.1 999265
9 may, sun
sun900:00+6nne5883100 0.1 1000354
03:00+7n4779100 0.1 1000902
06:00+5n698197 0.0 1002596
09:00+6n6876100 0.0 1003821
12:00+6n6777100 0.0 1004958
15:00+6nnw5782100 0.1 1006790
18:00+8n4672100 0.0 1006673
21:00+7nnw3770100 0.0 1007243
10 may, mon
mon1000:00+7nw2470100 0.1 1009149
03:00+6wnw2475100 0.4 1009136
06:00+6nw3570100 0.1 1010252
09:00+9nnw345998 0.1 1011715
12:00+13n3446100 0.0 10111628
15:00+16nne353596 0.0 10102244
18:00+16e3335100 0.0 10101195
21:00+9sse377076 0.0 1013154
11 may, tue
tue1100:00+8s347611 0.0 101360
03:00+7s34770 0.0 101463
06:00+7sse357669 0.0 1014119
09:00+14sse5749100 0.0 1013593
12:00+18sse673465 0.0 10121841
15:00+19se7930100 0.0 10092415
18:00+18se91135100 0.0 10061820
21:00+15sse81546100 0.0 1007731
12 may, wed
wed1200:00+12se91761100 0.0 1005797
03:00+11se91663100 0.0 1003828
06:00+10se91678100 2.5 10011081
09:00+13sse796696 7.3 10001156
12:00+18sse6104197 2.2 9982618
15:00+15sse81257100 2.9 9971539
18:00+15sw795064 0.7 9971901
21:00+10ssw486894 0.7 999172